Simultaneous Nadir Overpasses (SNOs) Predictions

Prediction of SNOs between GOES-16 and NOAA-19 Satellite Orbit:

Table of predicted SNOs for the next 14.0 days since TLE Epoch: 12/19/2020
Index Date Time (GOES-16) GOES-16 Lat,Lon NOAA-19 Lat,Lon Distance(km) Time Diff (sec)
1 12/19/2020 23:26:10 0.02, -75.15 -0.13, -75.73 66.75 80
2 12/20/2020 23:17:07 0.02, -75.16 0.55, -72.88 260.60 80
3 12/23/2020 11:38:04 -0.02, -75.21 0.59, -77.83 299.30 80
4 12/24/2020 11:23:42 -0.02, -75.22 -0.09, -74.97 28.65 80
5 12/25/2020 11:11:59 -0.02, -75.23 -0.77, -72.11 356.72 80
6 12/27/2020 23:32:53 0.01, -75.24 -0.42, -77.05 206.16 80
7 12/28/2020 23:23:51 0.00, -75.26 0.26, -74.19 122.14 80
8 12/29/2020 23:12:08 0.00, -75.27 0.93, -71.33 450.45 80
9 12/31/2020 11:44:46 -0.00, -75.32 0.91, -79.14 435.74 80
10 01/01/2021 11:33:04 0.00, -75.34 0.23, -76.28 107.18 80
